Weather Roundup
Issued by NWS Corpus Christi, TX

Home | Current Version | Previous Version | Text Only | Print | Product List | Glossary On
Versions: 1 2 3 4 5 6 7 8 9 10 11 12 13 14 15 16 17 18 19 20 21 22 23 24 25 26 27 28 29 30 31 32 33 34 35 36 37 38 39 40 41 42 43 44 45 46 47 48 49 50
000
ASUS44 KCRP 250910
HRRCRP

SOUTH TEXAS REGIONAL WEATHER ROUNDUP
NATIONAL WEATHER SERVICE CORPUS CHRISTI TX
400 AM CDT TUE JUL 25 2017


TXZ229>244-251000-
...CORPUS CHRISTI AREA OBSERVATIONS...

CITY           SKY/WX    TMP DP  RH WIND       PRES   REMARKS
CORPUS CHRISTI PTCLDY    77  76  96 SE6       30.00S
NAS CORPUS CHR CLEAR     84  78  82 S12       30.00R HX  95
ROCKPORT       CLEAR     83  74  74 S10       30.00S
KINGSVILLE NAS CLEAR     82  78  88 SE10      29.99S HX  91
ALICE          CLEAR     76  73  91 SE7       29.99S
FALFURRIAS     MOCLDY    79  75  87 SE7       29.98S
$$

...VICTORIA AREA OBSERVATIONS...

CITY           SKY/WX    TMP DP  RH WIND       PRES   REMARKS
VICTORIA       CLOUDY    77  73  87 SE6       30.02S
BEEVILLE       FAIR     N/A N/A N/A S7        30.01S
PLEASANTON     PTCLDY    79  73  82 S7        30.02S
SAN ANTONIO    CLOUDY    79  73  82 SE9       30.04R
$$

...LAREDO AREA OBSERVATIONS...

CITY           SKY/WX    TMP DP  RH WIND       PRES   REMARKS
LAREDO         CLEAR     82  72  71 SE14      29.97S
COTULLA        CLEAR     80  72  76 SE12      29.98S
DEL RIO        PTCLDY    84  66  54 E8        29.97R
MCALLEN        CLEAR     82  77  84 SE9       29.99S HX  90
HEBBRONVILLE   PTCLDY    77  72  85 SE8       30.00S
$$

...OTHER TEXAS OBSERVATIONS...

CITY           SKY/WX    TMP DP  RH WIND       PRES   REMARKS
BROWNSVILLE    CLEAR     80  78  94 SE7       30.00R
HOUSTON        CLOUDY    81  74  79 S5        30.05R
COL. STATION   CLOUDY    80  75  84 S12       30.03S
AUSTIN         MOCLDY    80  75  84 S9        30.03R
WACO           CLEAR     78  72  81 S12       30.03R
FORT WORTH     PTCLDY    80  76  87 S9        30.00S
WICHITA FALLS  CLEAR     74  71  91 SE6       30.00R
LUBBOCK        PTCLDY    75  65  70 S8        30.08S
EL PASO        PTCLDY    75  63  66 SW8       30.09F
$$

...MARINE OBSERVATIONS...

STATION/POSITION TIME  SKY/WX   TEMP    WIND        PRES    VSBY  WAVE   SWELL
                                AIR SEA DIR/SP/G                  HT/PER HT/PER
                 (UTC)          (F)     (DEG/KT/KT) (MB)    (MI)  (FT/S) (FT/S)
PORT ARANSAS     0900            83 85  140/ 20/ 21 1015.9R
BUOY 90 E PORT A 0750            85 86  140/ 14/ 16 1016.8          3/ 6   2/16
BUOY 45 SE BAFFI 0750            85     160/ 16/ 19 1015.1          4/ 5
BUOY 200 E PT IS 0750            86 87  130/ 14/ 17 1017.0          3/ 6
BUOY 15 E GALVES 0750            85 86  190/ 16/ 17 1017.2          3/ 6
$$



USA.gov is the U.S. government's official web portal to all federal, state and local government web resources and services.